Santee, CA

3:54 PM PST on February 12, 2016 (GMT -0800)
Gillespie

Weather History for KSEE - May, 2014

Change the Weather History Date:

Monday, May 12, 2014

  Actual Average Record
Temperature  
Mean Temperature 70 °F -  
Max Temperature 93 °F 73 °F 98 °F (2013)
Min Temperature 48 °F 53 °F 45 °F (1983)
Cooling Degree Days 6    
Growing Degree Days 20 (Base 50)    
Moisture  
Dew Point 26 °F    
Average Humidity 24    
Maximum Humidity 54    
Minimum Humidity 4    
Precipitation  
Precipitation 0.00 in - - ()
Sea Level Pressure  
Sea Level Pressure 29.98 in    
Wind  
Wind Speed 3 mph (NW)    
Max Wind Speed 21 mph    
Max Gust Speed 25 mph    
Visibility 10 miles    
Events      
Averages and records for this station are not official NWS values.
T = Trace of Precipitation, MM = Missing Value Source: NWS Daily Summary

Daily Weather History Graph

Daily Weather History Graph

Search for Another Location

Airport or City:

Trip Planner

Search our weather history database for the weather conditions in past years. The results will help you decide how hot, cold, wet, or windy it might be!

Date:

Astronomy

May. 12, 2014 Rise Set
Actual Time 5:50 AM PDT 7:37 PM PDT
Civil Twilight 5:24 AM PDT 8:04 PM PDT
Nautical Twilight 4:51 AM PDT 8:37 PM PDT
Astronomical Twilight 4:17 AM PDT 9:12 PM PDT
Moon 5:46 PM PDT 4:24 AM PDT
Length of Visible Light 14h 40m
Length of Day
13h 46m
Waxing Gibbous, 95% of the Moon is Illuminated
May 12
Waxing Gibbous
May 14
Full
May 21
Last Quarter
May 28
New
Jun 5
First Quarter

Hourly Weather History & Observations

Time (PDT) Temp. Dew Point Humidity Pressure Visibility Wind Dir Wind Speed Gust Speed Precip Events Conditions
12:15 AM 55.4 °F 32.0 °F 41% 29.98 in 10.0 mi Calm Calm - N/A   Clear
12:35 AM 55.4 °F 32.0 °F 41% 29.97 in 10.0 mi Calm Calm - N/A   Clear
12:55 AM 55.4 °F 32.0 °F 41% 29.98 in 10.0 mi Calm Calm - N/A   Clear
1:15 AM 53.6 °F 32.0 °F 44% 29.98 in 10.0 mi Calm Calm - N/A   Clear
1:35 AM 53.6 °F 32.0 °F 44% 29.97 in 10.0 mi Calm Calm - N/A   Clear
1:55 AM 53.6 °F 32.0 °F 44% 29.97 in 10.0 mi Calm Calm - N/A   Clear
2:15 AM 51.8 °F 33.8 °F 50% 29.97 in 10.0 mi Calm Calm - N/A   Clear
2:35 AM 51.8 °F 32.0 °F 47% 29.98 in 10.0 mi Calm Calm - N/A   Clear
2:55 AM 51.8 °F 32.0 °F 47% 29.98 in 10.0 mi Calm Calm - N/A   Clear
3:35 AM 51.8 °F 32.0 °F 47% 29.97 in 10.0 mi Calm Calm - N/A   Clear
3:55 AM 51.8 °F 32.0 °F 47% 29.97 in 10.0 mi Calm Calm - N/A   Clear
4:15 AM 51.8 °F 32.0 °F 47% 29.97 in 10.0 mi Calm Calm - N/A   Clear
4:35 AM 50.0 °F 32.0 °F 50% 29.97 in 10.0 mi Calm Calm - N/A   Clear
4:55 AM 48.2 °F 32.0 °F 54% 29.97 in 10.0 mi Calm Calm - N/A   Clear
5:15 AM 48.2 °F 32.0 °F 54% 29.97 in 10.0 mi Calm Calm - N/A   Clear
5:35 AM 50.0 °F 32.0 °F 50% 29.98 in 10.0 mi Calm Calm - N/A   Clear
5:55 AM 48.2 °F 32.0 °F 54% 29.98 in 10.0 mi Calm Calm - N/A   Clear
6:15 AM 48.2 °F 32.0 °F 54% 29.99 in 10.0 mi Calm Calm - N/A   Clear
6:35 AM 50.0 °F 32.0 °F 50% 30.00 in 10.0 mi Calm Calm - N/A   Clear
6:55 AM 51.8 °F 32.0 °F 47% 30.00 in 9.0 mi Calm Calm - N/A   Clear
7:15 AM 55.4 °F 32.0 °F 41% 30.01 in 9.0 mi Calm Calm - N/A   Clear
7:35 AM 57.2 °F 32.0 °F 38% 30.01 in 9.0 mi Calm Calm - N/A   Clear
7:55 AM 60.8 °F 32.0 °F 34% 30.01 in 9.0 mi Calm Calm - N/A   Clear
8:15 AM 64.4 °F 32.0 °F 30% 30.01 in 9.0 mi Calm Calm - N/A   Clear
8:35 AM 66.2 °F 32.0 °F 28% 30.01 in 9.0 mi Calm Calm - N/A   Clear
8:55 AM 71.6 °F 28.4 °F 20% 30.01 in 10.0 mi Calm Calm - N/A   Clear
9:15 AM 75.2 °F 28.4 °F 18% 30.01 in 10.0 mi Calm Calm - N/A   Clear
9:35 AM 78.8 °F 28.4 °F 16% 30.01 in 10.0 mi Calm Calm - N/A   Clear
9:55 AM 82.4 °F 28.4 °F 14% 30.01 in 10.0 mi Calm Calm - N/A   Clear
10:15 AM 86.0 °F 19.4 °F 9% 30.01 in 10.0 mi SW 3.5 mph - N/A   Clear
10:47 AM 87.8 °F 44.6 °F 22% 30.01 in 25.0 mi Calm Calm - N/A   Clear
10:55 AM 87.8 °F 19.4 °F 8% 30.02 in 10.0 mi East 4.6 mph - N/A   Clear
11:15 AM 87.8 °F 17.6 °F 8% 30.00 in 10.0 mi SSE 8.1 mph - N/A   Clear
11:35 AM 89.6 °F 17.6 °F 7% 30.00 in 10.0 mi SSE 9.2 mph - N/A   Clear
11:55 AM 91.4 °F 17.6 °F 7% 29.99 in 10.0 mi NNE 8.1 mph - N/A   Clear
12:35 PM 91.4 °F 17.6 °F 7% 29.98 in 10.0 mi ESE 8.1 mph - N/A   Clear
12:47 PM 91.4 °F 17.6 °F 7% 29.97 in 25.0 mi Variable 6.9 mph - N/A   Clear
12:55 PM 91.4 °F 15.8 °F 6% 29.98 in 10.0 mi North 11.5 mph 16.1 mph N/A   Clear
1:15 PM 91.4 °F 15.8 °F 6% 29.97 in 10.0 mi NNW 12.7 mph 16.1 mph N/A   Clear
1:22 PM 91.4 °F 15.8 °F 6% 29.97 in 25.0 mi North 11.5 mph - N/A   Clear
1:35 PM 93.2 °F 14.0 °F 5% 29.96 in 10.0 mi NNE 16.1 mph 19.6 mph N/A   Clear
1:55 PM 91.4 °F 14.0 °F 6% 29.97 in 10.0 mi ENE 6.9 mph 20.7 mph N/A   Clear
2:15 PM 93.2 °F 14.0 °F 5% 29.96 in 10.0 mi North 13.8 mph 17.3 mph N/A   Clear
2:35 PM 93.2 °F 12.2 °F 5% 29.96 in 10.0 mi ENE 9.2 mph 17.3 mph N/A   Clear
2:55 PM 93.2 °F 8.6 °F 4% 29.96 in 10.0 mi Calm Calm - N/A   Clear
3:15 PM 91.4 °F 28.4 °F 10% 29.95 in 10.0 mi West 19.6 mph - N/A   Clear
3:35 PM 89.6 °F 24.8 °F 10% 29.94 in 10.0 mi West 20.7 mph 25.3 mph N/A   Clear
3:55 PM 87.8 °F 24.8 °F 10% 29.94 in 10.0 mi West 19.6 mph - N/A   Clear
4:15 PM 87.8 °F 26.6 °F 11% 29.93 in 10.0 mi West 18.4 mph - N/A   Clear
4:35 PM 87.8 °F 23.0 °F 9% 29.93 in 10.0 mi West 17.3 mph - N/A   Clear
4:47 PM 87.8 °F 23.0 °F 9% 29.92 in 25.0 mi WNW 17.3 mph 18.4 mph N/A   Clear
4:55 PM 87.8 °F 23.0 °F 9% 29.93 in 10.0 mi West 20.7 mph - N/A   Clear
5:15 PM 86.0 °F 23.0 °F 10% 29.94 in 10.0 mi WNW 16.1 mph 21.9 mph N/A   Clear
5:35 PM 86.0 °F 21.2 °F 9% 29.94 in 10.0 mi WNW 16.1 mph 21.9 mph N/A   Clear
5:55 PM 84.2 °F 23.0 °F 11% 29.94 in 10.0 mi WNW 13.8 mph - N/A   Clear
6:15 PM 84.2 °F 21.2 °F 10% 29.95 in 10.0 mi WNW 16.1 mph 20.7 mph N/A   Clear
6:35 PM 82.4 °F 23.0 °F 11% 29.95 in 10.0 mi WNW 11.5 mph - N/A   Clear
6:55 PM 80.6 °F 23.0 °F 12% 29.96 in 10.0 mi NW 8.1 mph - N/A   Clear
7:15 PM 80.6 °F 23.0 °F 12% 29.96 in 10.0 mi NW 5.8 mph - N/A   Clear
7:35 PM 78.8 °F 24.8 °F 14% 29.97 in 10.0 mi Calm Calm - N/A   Clear
7:55 PM 77.0 °F 26.6 °F 16% 29.99 in 10.0 mi Calm Calm - N/A   Clear
8:15 PM 77.0 °F 26.6 °F 16% 29.99 in 10.0 mi Calm Calm - N/A   Clear
8:35 PM 75.2 °F 28.4 °F 18% 30.00 in 10.0 mi Calm Calm - N/A   Clear
8:55 PM 73.4 °F 30.2 °F 20% 30.00 in 10.0 mi Calm Calm - N/A   Clear
9:15 PM 73.4 °F 28.4 °F 19% 30.01 in 10.0 mi Calm Calm - N/A   Clear
9:35 PM 71.6 °F 28.4 °F 20% 30.01 in 10.0 mi Calm Calm - N/A   Clear
9:55 PM 69.8 °F 28.4 °F 21% 30.02 in 10.0 mi Calm Calm - N/A   Clear
10:15 PM 69.8 °F 30.2 °F 23% 30.02 in 10.0 mi Calm Calm - N/A   Clear
10:35 PM 66.2 °F 30.2 °F 26% 30.03 in 10.0 mi Calm Calm - N/A   Clear
10:55 PM 64.4 °F 28.4 °F 26% 30.02 in 10.0 mi Calm Calm - N/A   Clear
11:15 PM 64.4 °F 28.4 °F 26% 30.02 in 10.0 mi Calm Calm - N/A   Clear
11:35 PM 62.6 °F 30.2 °F 30% 30.02 in 10.0 mi Calm Calm - N/A   Clear
11:55 PM 62.6 °F 30.2 °F 30% 30.02 in 10.0 mi Calm Calm - N/A   Clear